Location: Lake Almanor
(40.2485°N, 121.1442°W)
Time: 10:48:18
(UTC-08:00)

FALCON 9 DEB - Pass Details

Date: 01 February 2020
Orbit: 248 x 258 km, 53.0° (Epoch: 17 February)

Event Time Altitude Azimuth Distance (km) Brightness Sun altitude
Rises 18:47:43 0° 300° (WNW) 1,937 ? -16.4°
Reaches altitude 10° 18:49:46 10° 287° (WNW) 1,125 ? -16.8°
Maximum altitude 18:51:56 26° 226° (SW) 605 ? -17.2°
Enters shadow 18:53:22 16° 176° (S) 869 ? -17.5°
